ATLAS 5 CENTAUR DEB, 55850

Orbit data source: Space-Track

ATLAS 5 CENTAUR DEB, 55850 is space debris in HEO originally from a launch on Wed, 17 Oct 2018 UTC launched from the Air Force Eastern Test Range (AFETR). Debris objects in space refer to the collection of defunct objects orbiting the Earth. Examples of debris include non-operational satellites, rocket bodies, and fragments generated from explosions, collisions, or faulty payload assembly.

Loading next visibility...
Identifier
55850, 2018-079HC
Orbit
HEO
Country
Flag of USUS
Related business
Flag of USUnited Launch Alliance/Lockheed Martin (US)
Manufacturer
ULA Decatur
Mission
Spacecraft
Bus & Motor
Unknown
Mass
Unknown
Launch date (UTC)
2018-10-17 (8 years ago)
Launch vehicle
Unknown
Launch site
Air Force Eastern Test Range (AFETR)
Object type
Payload
Rocket body
Debris
Shape & HBR
Unknown shape, 1.1 m
Radar Cross Section
RCS unknown

Expand to show TLE details & history
Last TLE update: 2 weeks ago

TLE from 2 weeks ago
0 ATLAS 5 CENTAUR DEB
1 55850U 18079HC  26241.57540005 -.00000142  00000-0  00000-0 0  9997
2 55850  13.7454  20.6537 4908658 341.7305   5.3780  1.79148153 26319
Epoch: 2026-08-29T13:48Z
TLE epoch observation values (Epoch: 2026-08-29T13:48:34.564Z)
Latitude
0.00001°
Longitude
-164.24166°
Altitude
8,426.813 km
Speed
6.319 km/s
True Right ascension
01h 22m 44s
True Declination
0° 00' 00"
Sunlit
Object was in daylight at epoch
Visualization orbit readout
Latitude
Unknown
Longitude
Unknown
Altitude
Unknown
Speed
Unknown
Apparent Right ascension
Unknown
Apparent Declination
Unknown
Sunlit
N/A
Visualization observer readout
Local Sidereal Time
04:11:02
Azimuth
Unknown
Elevation
Unknown
Doppler factor
Unknown
Orbital elements
Apogee altitude
36,318.931 km
Perigee altitude
8,203.013 km
Semi-major axis
28,639.109 km
Eccentricity
0.49087
Inclination
13.7454°
RAAN
20.6537°
Arg. of periapsis
341.7305°
True anomaly
17.88253°
Mean anomaly
5.378°
Eccentric anomaly
10.50636°
Mean motion
0.44782 °/min
Orbital period
803.89 mins
BSTAR
0
Loading maneuver chart data...
Computing Atmospheric mass density...

Documentation

Showing up to 5 results
|